OM3WYM-13 Weather Reports


time (UTC)temp
C
wind
direction
speed
KPH
gust
KPH
rain 1hr
cm
rain 24hr
cm
rain mn
cm
humidity
%
barometer
mb
20260506100008 21 0.0 0.0 0.00 0.00 0.00 45 1010.8
20260506095008 20 0.0 0.0 0.00 0.00 0.00 46 1011.0
20260506094008 20 0.0 0.0 0.00 0.00 0.00 47 1011.1
20260506093008 20 0.0 0.0 0.00 0.00 0.00 46 1011.0
20260506092008 19 0.0 0.0 0.00 0.00 0.00 48 1011.2
20260506091008 19 0.0 0.0 0.00 0.00 0.00 48 1011.1
20260506090008 19 0.0 0.0 0.00 0.00 0.00 47 1011.0
20260506085008 18 0.0 0.0 0.00 0.00 0.00 49 1011.1
20260506084008 17 0.0 0.0 0.00 0.00 0.00 50 1011.3
20260506083008 17 0.0 0.0 0.00 0.00 0.00 51 1011.4
20260506082009 17 0.0 0.0 0.00 0.00 0.00 50 1011.2
20260506081008 17 0.0 0.0 0.00 0.00 0.00 50 1011.1
20260506073008 18 0.0 0.0 0.00 0.00 0.00 46 1010.7
20260506072008 17 0.0 0.0 0.00 0.00 0.00 45 1010.6
20260506071008 18 0.0 0.0 0.00 0.00 0.00 44 1010.6
20260506062008 17 0.0 0.0 0.00 0.00 0.00 46 1010.1
20260506061008 16 0.0 0.0 0.00 0.00 0.00 47 1010.2
20260506051008 10 0.0 0.0 0.00 0.00 0.00 66 1010.8
20260506045008 8 0.0 0.0 0.00 0.00 0.00 69 1011.1
20260506044008 8 0.0 0.0 0.00 0.00 0.00 72 1011.3
20260506043008 7 0.0 0.0 0.00 0.00 0.00 75 1011.4
20260506042008 7 0.0 0.0 0.00 0.00 0.00 75 1011.4
20260506041008 7 0.0 0.0 0.00 0.00 0.00 74 1011.5
20260506040008 7 0.0 0.0 0.00 0.00 0.00 74 1011.5
20260506035008 7 0.0 0.0 0.00 0.00 0.00 74 1011.4
20260506034008 7 0.0 0.0 0.00 0.00 0.00 72 1011.5
20260506033008 7 0.0 0.0 0.00 0.00 0.00 71 1011.5
20260506032008 7 0.0 0.0 0.00 0.00 0.00 70 1011.4
20260506031008 8 0.0 0.0 0.00 0.00 0.00 69 1011.4
20260506030008 8 0.0 0.0 0.00 0.00 0.00 68 1011.4
20260506025010 8 0.0 0.0 0.00 0.00 0.00 67 1011.3
20260506024008 8 0.0 0.0 0.00 0.00 0.00 65 1011.2
20260506022008 9 0.0 0.0 0.00 0.00 0.00 63 1010.9
20260506021008 8 0.0 0.0 0.00 0.00 0.00 64 1010.8
20260506020008 8 0.0 0.0 0.00 0.00 0.00 65 1010.9
20260506015008 9 0.0 0.0 0.00 0.00 0.00 64 1010.7
20260506014008 9 0.0 0.0 0.00 0.00 0.00 64 1010.8
20260506013008 9 0.0 0.0 0.00 0.00 0.00 64 1010.9
20260506012008 9 0.0 0.0 0.00 0.00 0.00 63 1010.9
20260506011008 9 0.0 0.0 0.00 0.00 0.00 63 1010.8
20260506010008 9 0.0 0.0 0.00 0.00 0.00 63 1010.8
20260506005008 8 0.0 0.0 0.00 0.00 0.00 64 1010.7
20260506004008 8 0.0 0.0 0.00 0.00 0.00 64 1010.6
20260506003008 8 0.0 0.0 0.00 0.00 0.00 65 1010.7
20260506002008 8 0.0 0.0 0.00 0.00 0.00 64 1010.5
20260506001008 8 0.0 0.0 0.00 0.00 0.00 64 1010.7
20260506000008 8 0.0 0.0 0.00 0.00 0.00 64 1010.6
20260505235008 9 0.0 0.0 0.00 0.00 0.00 63 1010.5
20260505234008 9 0.0 0.0 0.00 0.00 0.00 62 1010.5
20260505233008 9 0.0 0.0 0.00 0.00 0.00 62 1010.6
20260505232008 9 0.0 0.0 0.00 0.00 0.00 61 1010.6
20260505231008 9 0.0 0.0 0.00 0.00 0.00 61 1010.7
20260505230008 10 0.0 0.0 0.00 0.00 0.00 59 1010.7
20260505225008 10 0.0 0.0 0.00 0.00 0.00 58 1010.7
20260505224023 10 0.0 0.0 0.00 0.00 0.00 58 1010.7
20260505223008 10 0.0 0.0 0.00 0.00 0.00 57 1010.8
20260505222008 10 0.0 0.0 0.00 0.00 0.00 57 1010.8
20260505221008 10 0.0 0.0 0.00 0.00 0.00 57 1010.9
20260505220008 10 0.0 0.0 0.00 0.00 0.00 57 1010.9
20260505215008 10 0.0 0.0 0.00 0.00 0.00 57 1010.9
20260505214008 10 0.0 0.0 0.00 0.00 0.00 58 1010.9
20260505213008 10 0.0 0.0 0.00 0.00 0.00 58 1011.0
20260505212008 10 0.0 0.0 0.00 0.00 0.00 58 1011.0
20260505211008 10 0.0 0.0 0.00 0.00 0.00 58 1011.0
20260505210008 11 0.0 0.0 0.00 0.00 0.00 56 1010.8
20260505205008 11 0.0 0.0 0.00 0.00 0.00 56 1010.8
20260505204008 12 0.0 0.0 0.00 0.00 0.00 54 1010.8
20260505203008 12 0.0 0.0 0.00 0.00 0.00 53 1010.7
20260505202008 12 0.0 0.0 0.00 0.00 0.00 53 1010.7
20260505201008 12 0.0 0.0 0.00 0.00 0.00 52 1010.6
20260505200008 12 0.0 0.0 0.00 0.00 0.00 52 1010.6
20260505195008 13 0.0 0.0 0.00 0.00 0.00 51 1010.5
20260505194008 13 0.0 0.0 0.00 0.00 0.00 49 1010.3
20260505193009 13 0.0 0.0 0.00 0.00 0.00 48 1010.3
20260505192008 14 0.0 0.0 0.00 0.00 0.00 46 1010.2
20260505191008 15 0.0 0.0 0.00 0.00 0.00 45 1010.2
20260505190008 15 0.0 0.0 0.00 0.00 0.00 43 1010.2
20260505185008 16 0.0 0.0 0.00 0.00 0.00 41 1010.0
20260505184008 17 0.0 0.0 0.00 0.00 0.00 39 1009.9
20260505183008 17 0.0 0.0 0.00 0.00 0.00 38 1009.7
20260505182008 18 0.0 0.0 0.00 0.00 0.00 35 1009.6
20260505181008 20 0.0 0.0 0.00 0.00 0.00 33 1009.4
20260505180008 21 0.0 0.0 0.00 0.00 0.00 29 1009.3
20260505175008 21 0.0 0.0 0.00 0.00 0.00 27 1009.2
20260505174008 22 0.0 0.0 0.00 0.00 0.00 24 1009.1
20260505173008 23 0.0 0.0 0.00 0.00 0.00 22 1009.0
20260505172008 23 0.0 0.0 0.00 0.00 0.00 21 1008.9
20260505171008 25 0.0 0.0 0.00 0.00 0.00 20 1008.9
20260505170008 25 0.0 0.0 0.00 0.00 0.00 20 1008.8
20260505165008 26 0.0 0.0 0.00 0.00 0.00 18 1008.7
20260505164008 27 0.0 0.0 0.00 0.00 0.00 17 1008.6
20260505163009 27 0.0 0.0 0.00 0.00 0.00 17 1008.8
20260505162008 27 0.0 0.0 0.00 0.00 0.00 18 1008.8
20260505161008 26 0.0 0.0 0.00 0.00 0.00 18 1008.9
20260505153008 28 0.0 0.0 0.00 0.00 0.00 17 1009.1
20260505152008 29 0.0 0.0 0.00 0.00 0.00 16 1009.0
20260505151008 28 0.0 0.0 0.00 0.00 0.00 17 1009.2
20260505125008 28 0.0 0.0 0.00 0.00 0.00 19 1010.5
20260505124008 28 0.0 0.0 0.00 0.00 0.00 19 1010.8
20260505123008 27 0.0 0.0 0.00 0.00 0.00 20 1010.8
20260505122008 27 0.0 0.0 0.00 0.00 0.00 21 1011.1
20260505121009 27 0.0 0.0 0.00 0.00 0.00 20 1011.2
20260505120008 26 0.0 0.0 0.00 0.00 0.00 22 1011.4
20260505115008 26 0.0 0.0 0.00 0.00 0.00 22 1011.5
20260505114008 26 0.0 0.0 0.00 0.00 0.00 23 1011.7
20260505113008 25 0.0 0.0 0.00 0.00 0.00 23 1011.8
20260505112008 25 0.0 0.0 0.00 0.00 0.00 24 1012.0
20260505111008 24 0.0 0.0 0.00 0.00 0.00 24 1012.2
20260505102008 22 0.0 0.0 0.00 0.00 0.00 25 1012.7
20260505101008 22 0.0 0.0 0.00 0.00 0.00 25 1012.9